Regional Weather Roundup
Issued by NWS Newport/Morehead, NC

Current Version | Previous Version | Text Only | Print | Product List | Glossary On
Versions: 1 2 3 4 5 6 7 8 9 10 11 12 13 14 15 16 17 18 19 20 21 22 23 24 25 26 27 28 29 30 31 32 33 34 35 36 37 38 39 40 41 42 43 44 45 46 47 48 49 50
000
ASUS42 KMHX 251714
RWRMHX
WEATHER ROUNDUP FOR EASTERN NORTH CAROLINA
NATIONAL WEATHER SERVICE NEWPORT/MOREHEAD CITY NC
100 PM EDT TUE JUL 25 2017

NOTE: "FAIR" INDICATES FEW OR NO CLOUDS BELOW 12,000 FEET
WITH NO SIGNIFICANT WEATHER AND/OR OBSTRUCTIONS TO VISIBILITY

NCZ015>017-031-032-045>047-102-103-251800-
NORTH COAST

CITY           SKY/WX    TMP DP  RH WIND       PRES   REMARKS
EDENTON        PTSUNNY   85  72  64 CALM      30.07S
ELIZABETH CITY MOSUNNY   85  71  63 NE8       30.06S
KITTY HAWK     MOSUNNY   79  68  68 N9        30.05S
MANTEO         MOSUNNY   80  71  72 NE15      30.07R

$$

NCZ045>047-081-094-103-104-251800-
CENTRAL COAST

CITY           SKY/WX    TMP DP  RH WIND       PRES   REMARKS
FRISCO         PTSUNNY   85  75  72 NW5       30.06R

$$

NCZ095-097-098-100-101-251800-
SOUTHERN COAST

CITY           SKY/WX    TMP DP  RH WIND       PRES   REMARKS
BEAUFORT       SUNNY     85  78  80 SW12      30.05S
CEDAR ISLAND   NOT AVBL
JACKSONVILLE   MOSUNNY   89  79  72 E8        30.04S HX 104
PINEY ISLAND   SUNNY    N/A N/A N/A E9        30.04S
WILMINGTON     PTSUNNY   88  75  65 S6        30.04S


$$

NCZ011>013-027>030-043-044-078>080-089-090>093-098-251800-
COASTAL PLAIN

CITY           SKY/WX    TMP DP  RH WIND       PRES   REMARKS
AHOSKIE          N/A     82  72  70 CALM      30.07R
CLINTON        MOSUNNY   90  74  60 N3        30.05S
ELIZABETHTOWN  NOT AVBL
GOLDSBORO      MOSUNNY   91  69  48 W5        30.03F
GREENVILLE     MOSUNNY   88  73  62 NW5       30.06S
HAVELOCK       PTSUNNY   91  75  59 NE7       30.05S HX 101
KENANSVILLE    CLOUDY    90  73  58 CALM      30.05S
KINSTON        MOSUNNY   91  70  49 CALM      30.05F
NEW BERN       SUNNY     90  77  65 NW6       30.05S HX 103
RICHLANDS      MOSUNNY   91  77  63 CALM      30.04F HX 104
ROCKY MOUNT    MOSUNNY   87  72  60 NE5       30.06S
WASHINGTON     NOT AVBL
WHITEVILLE     MOSUNNY   87  74  66 CALM      30.05S

$$

AMZ130-135-150-152-154-156-158-170-250-252-270-ANZ085-086-088-633-658-670-251800-
MARINE OBSERVATIONS

STATION/POSITION TIME  TEMP    WIND        PRES    WAVE   SWELL
                       AIR SEA DIR/SP/G            HT/PER HT/PER
                 (UTC) (F)     (DEG/KT/KT) (MB)    (FT/S) (FT/S)
CHESAPEAKE LIGHT NOT AVBL
64 E VA BEACH    1650   76 77  360/ 16/ 17 1018.0    4/ 7   2/ 7
DUCK             1636   75 68   20/ 11/ 12 1017.7
2 E DUCK         1700      75                N/A     2/10
OREGON INLET     1648          360/ 13/ 15   N/A
13E OREGON INLT  1648      74                N/A     3/ 6   2/ 6
HATTERAS CG      1636   82 78  330/  3/  4 1017.8
DIAMOND BUOY     1650   80 84  250/  8/ 10 1017.8    4/ 6   3/ 6
CAPE LOOKOUT     1700   83     220/  8/ 11 1017.3
BEAUFORT LAB     1636   82 79  200/ 10/ 12 1017.0
30 SE NEW RVR IN 1608   82 84  230/ 10/ 12 1017.8
30 SE NEW RVR IN 1643      84                N/A     3/ 6
27 SE WRIGHTSVLE 1608   83 83  220/  8/ 12 1017.8
5 SE WRIGHTSVLE  1608   82 83  200/ 10/ 14 1017.5
225 S CAPE HAT   1650   78 83  280/ 21/ 25 1021.1    5/ 6   2/11
41 SE CHARLESTON 1650   81 83  240/ 10/ 10 1018.3    3/ 6   2/ 6

$$




USA.gov is the U.S. government's official web portal to all federal, state and local government web resources and services.